Volver al catálogo

HBTSS-SV2

ActivoMilitarLEO
NORAD 58955·PAYLOAD·🇺🇸 United States

Lanzado Feb 14, 2024 desde Cape Canaveral Space Force Station

Loading…

Próximos Pases (próximas 24 horas)

TLE

ActualizadoSource: Space-Track

Época: Sep 14, 2026, 13:53 UTC

1 58955U 24028A   26257.57903816  .00000036  00000-0  12757-3 0  9993
2 58955  39.9930 353.1966 0018301  29.7724 330.4060 13.70486961129333

Sigue HBTSS-SV2 en tiempo real con AllMySat

Download on the App Store